Location: Joplin, MO
(37.0842°N, 94.5133°W)
Time: 21:17:16
(UTC+02:00)

Transit 2A Rocket - Pass Details

Date: 28 March 2023
Orbit: 584 x 914 km, 66.7° (Epoch: 06 June)

Event Time Altitude Azimuth Distance (km) Brightness Sun altitude
Rises 18:07:29 0° 193° (SSW) 3,167 8.5 43.9°
Reaches altitude 10° 18:09:48 10° 189° (S) 2,298 7.9 44.2°
Maximum altitude 18:14:59 56° 112° (ESE) 972 7.5 45.0°
Drops below altitude 10° 18:20:39 10° 36° (NE) 2,514 7.7 45.9°
Sets 18:23:16 0° 33° (NNE) 3,490 8.3 46.3°
